Regional Weather Roundup
Issued by NWS Mobile, AL

Home | Current Version | Previous Version | Text Only | Print | Product List | Glossary On
Versions: 1 2 3 4 5 6 7 8 9 10 11 12 13 14 15 16 17 18 19 20 21 22 23 24 25 26 27 28 29 30 31 32 33 34 35 36 37 38 39 40 41 42 43 44 45 46 47 48 49 50
000
ASUS44 KMOB 031117
RWRMOB
REGIONAL WEATHER ROUNDUP
NATIONAL WEATHER SERVICE MOBILE AL
600 AM CDT SUN MAY 03 2015

ALZ061>064-031200-
COASTAL ALABAMA


CITY           SKY/WX    TMP DP  RH WIND       PRES   REMARKS
MOBILE REG APT PTCLDY    53  51  93 CALM      30.10R
BROOKLEY FIELD CLEAR     54  52  93 NW3       30.11R
GULF SHORES    SUNNY     52  51  97 CALM      30.09R

$$

ALZ051>060-031200-
INTERIOR SOUTHWEST AND SOUTH CENTRAL ALABAMA


CITY           SKY/WX    TMP DP  RH WIND       PRES   REMARKS
ANDALUSIA/OPP  CLEAR     53  49  86 CALM      30.12R
EVERGREEN      CLEAR     48  47  96 CALM      30.12R
FLORALA        SUNNY     51  49  92 CALM      30.13R
GREENVILLE     FAIR      50  46  86 CALM      30.12R

$$

FLZ001>006-031200-
WESTERN FLORIDA PANHANDLE


CITY           SKY/WX    TMP DP  RH WIND       PRES   REMARKS
CRESTVIEW      CLEAR     47  46  97 CALM      30.12R
DESTIN         CLEAR     62  60  93 CALM      30.09R
DUKE FIELD     FAIR      48  46  92 CALM      30.10R
MARY ESTHER    CLEAR     53  49  89 NW2       30.08R
MILTON         SUNNY     51  48  89 N3        30.11R
PENSACOLA      CLEAR     58  56  93 N5        30.09R
NAS PENSACOLA  CLEAR     52  51  97 CALM      30.09R
VALPARAISO     PTCLDY    53  50  89 N1        30.09R

$$

...MARINE OBSERVATIONS...

STATION/POSITION TIME  SKY/WX   TEMP    WIND        PRES    VSBY
                                AIR SEA DIR/SP/G
                 (UTC)          (F)     (DEG/KT/KT) (MB)    (MI)
PASCAGOULA       1000            61      40/  3/  3 1018.3R
PETIT BOIS ISL   1000            71     150/  6/  7 1018.7R
E DAUPHIN ISLAND 1100            70      80/  3/  3 1018.5R
MIDDLE BAY LIGHT 1000            68     110/  4     1018.0R
USCG MOBILE BAY  1000            60 71  330/  1/  1 1017.7R
STATE DOCKS      1000            60 69              1018.5R
MEAHER PARK      1100            58      20/  1     1019.6R
FORT MORGAN      1000            70     140/  3/  3 1018.1R
12 S ORANGE BCH  1050            72 73   60/  2/  2 1018.3R
WVE H/P(F/S)=  1

PENSACOLA BAY    1000            65 74   20/  2/  3 1018.8R
64 S DAUPHIN ISL 1050            72 74  160/  4/  6 1018.7R
WVE H/P(F/S)=  1

67 S FORT MORGAN 1030            71                 1018.3R
115 SE PENSACOLA 1050            72 74   90/ 12/ 14 1018.9R
WVE H/P(F/S)=  1/ 4

MID GULF/42001   1050            75 79   60/  8/ 12 1017.3R
WVE H/P(F/S)=  2/ 4

EAST GULF/42003  1050            74 80   50/ 10/ 14 1017.0R
WVE H/P(F/S)=  2/ 5


$$

...NEARBY LOCATIONS

CITY           SKY/WX    TMP DP  RH WIND       PRES   REMARKS
GULFPORT       CLEAR     56  53  90 CALM      30.08R
BILOXI         CLEAR     59  55  88 NE3       30.08R
PASCAGOULA     CLEAR     50  49  96 CALM      30.09R FOG
HATTIESBURG    CLEAR     51  48  89 CALM      30.10R
LAUREL         CLEAR     50  45  81 CALM      30.10R
MERIDIAN       CLEAR     48  45  89 CALM      30.10R
MERIDIAN NAS   CLEAR     49  45  86 CALM      30.10R
MONTGOMERY     CLEAR     52  49  89 CALM      30.12R
MAXWELL AFB    CLEAR     52  52 100 SW2       30.11R FOG
TROY           CLEAR     49  47  93 CALM      30.13R
FORT RUCKER    CLEAR     49  47  93 CALM      30.11R
DALEVILLE      CLEAR     53  48  85 N2        30.12R
DOTHAN         CLEAR     53  51  93 CALM      30.15R

$$

...OTHER SURROUNDING LOCATIONS...

CITY           SKY/WX    TMP DP  RH WIND       PRES   REMARKS
BIRMINGHAM     CLEAR     52  49  89 CALM      30.13R
TUSCALOOSA     CLEAR     51  49  92 CALM      30.12R FOG
COLUMBUS GA    CLEAR     52  49  89 CALM      30.12R
PANAMA CITY    NOT AVBL
TALLAHASSEE    PTCLDY    52  48  86 CALM      30.12R
BATON ROUGE    PTCLDY    60  58  92 NE3       30.06R FOG
NEW ORLEANS    PTCLDY    65  59  81 SE3       30.06S
SLIDELL        PTCLDY    55  54  96 CALM      30.07R
JACKSON        PTCLDY    56  51  84 CALM      30.08R
MCCOMB         PTCLDY    57  55  93 CALM      30.08R

$$

...SURROUNDING MARINE OBSERVATIONS...

STATION/POSITION TIME  SKY/WX   TEMP    WIND        PRES    VSBY
                                AIR SEA DIR/SP/G
                 (UTC)          (F)     (DEG/KT/KT) (MB)    (MI)
WAVELAND         1000            65 71  360/  2/  2 1018.0R
PASCAGOULA RGN A 1000            58     150/  2/  2 1018.0R
PASCAGOULA PORT  1000               76                N/A
GRAND ISLE       1000            72 78  160/  2/  4 1017.5S
SOUTHWEST PASS   1100            72     120/  4/  4 1018.3R
PILOT STATION E  1000            70 66  120/  4/  4 1018.2R
SHELL BEACH      1000            69 74  120/  5/  5 1017.3R
PANAMA CITY      1000            62 76   40/  5/  6 1018.1R
APALACHICOLA     1000            61 70   20/  5/  6 1018.5R
TYNDALL TOWER C  1100            71     110/ 17/ 19 1019.0R
S APLCHCLA/42036 1050            73 74  130/ 17/ 19 1018.5R
WVE H/P(F/S)=  3/ 4


$$



USA.gov is the U.S. government's official web portal to all federal, state and local government web resources and services.